H1 CPF 2 NER 2024 1 31 9 031 01 glonass105 H2 0705202 9105 32276 2024 1 31 0 0 0 2024 2 3 23 45 0 900 1 1 0 0 0 1 H9 10 0 60340 0.00000 0 12683807.286 -2980380.252 21951733.752 10 0 60340 900.00000 0 14927404.936 -1607110.853 20648464.370 10 0 60340 1800.00000 0 17108672.870 -500397.210 18945194.046 10 0 60340 2700.00000 0 19159447.079 335725.846 16874990.372 10 0 60340 3600.00000 0 21013844.770 910123.969 14477994.505 10 0 60340 4500.00000 0 22610905.888 1243951.090 11800647.985 10 0 60340 5400.00000 0 23897047.124 1369518.783 8894800.328 10 0 60340 6300.00000 0 24828227.151 1328695.468 5816713.825 10 0 60340 7200.00000 0 25371733.570 1170903.017 2625983.931 10 0 60340 8100.00000 0 25507517.395 950795.066 -615604.755 10 0 60340 9000.00000 0 25229019.491 725714.566 -3845265.594 10 0 60340 9900.00000 0 24543454.134 553037.396 -7000417.751 10 0 60340 10800.00000 0 23471537.315 487513.800 -10019891.993 10 0 60340 11700.00000 0 22046670.308 578719.675 -12845111.491 10 0 60340 12600.00000 0 20313611.610 868725.414 -15421225.022 10 0 60340 13500.00000 0 18326691.668 1390081.141 -17698170.814 10 0 60340 14400.00000 0 16147643.790 2164204.260 -19631650.489 10 0 60340 15300.00000 0 13843140.763 3200238.591 -21183994.130 10 0 60340 16200.00000 0 11482139.017 4494434.935 -22324899.543 10 0 60340 17100.00000 0 9133140.334 6030081.202 -23032031.011 10 0 60340 18000.00000 0 6861484.811 7777987.399 -23291465.395 10 0 60340 18900.00000 0 4726787.619 9697507.495 -23097976.226 10 0 60340 19800.00000 0 2780626.420 11738057.652 -22455149.373 10 0 60340 20700.00000 0 1064576.075 13841069.170 -21375327.021 10 0 60340 21600.00000 0 -391327.047 15942295.956 -19879379.934 10 0 60340 22500.00000 0 -1569626.683 17974380.903 -17996311.335 10 0 60340 23400.00000 0 -2465950.414 19869574.062 -15762699.161 10 0 60340 24300.00000 0 -3088954.428 21562488.546 -13221986.779 10 0 60340 25200.00000 0 -3459711.958 22992777.872 -10423635.598 10 0 60340 26100.00000 0 -3610571.829 24107621.315 -7422156.098 10 0 60340 27000.00000 0 -3583536.339 24863911.608 -4276036.629 10 0 60340 27900.00000 0 -3428228.485 25230051.814 -1046591.726 10 0 60340 28800.00000 0 -3199536.263 25187284.750 2203246.322 10 0 60340 29700.00000 0 -2955035.775 24730498.409 5410167.613 10 0 60340 30600.00000 0 -2752304.289 23868473.356 8511730.772 10 0 60340 31500.00000 0 -2646238.995 22623562.057 11447589.269 10 0 60340 32400.00000 0 -2686496.634 21030814.496 14160672.842 10 0 60340 33300.00000 0 -2915163.599 19136587.989 16598300.194 10 0 60340 34200.00000 0 -3364755.778 16996700.923 18713200.939 10 0 60340 35100.00000 0 -4056632.901 14674209.102 20464427.144 10 0 60340 36000.00000 0 -4999894.135 12236898.844 21818137.413 10 0 60340 36900.00000 0 -6190800.959 9754602.223 22748239.400 10 0 60340 37800.00000 0 -7612751.029 7296446.607 23236879.691 10 0 60340 38700.00000 0 -9236803.501 4928152.564 23274773.085 10 0 60340 39600.00000 0 -11022733.386 2709491.554 22861366.457 10 0 60340 40500.00000 0 -12920570.655 692007.509 22004835.364 10 0 60340 41400.00000 0 -14872559.909 -1082905.005 20721914.581 10 0 60340 42300.00000 0 -16815459.320 -2585488.353 19037566.553 10 0 60340 43200.00000 0 -18683083.698 -3798615.584 16984494.520 10 0 60340 44100.00000 0 -20408986.639 -4718251.217 14602509.665 10 0 60340 45000.00000 0 -21929171.005 -5353361.818 11937764.137 10 0 60340 45900.00000 0 -23184715.755 -5725281.703 9041864.133 10 0 60340 46800.00000 0 -24124210.511 -5866561.517 5970879.356 10 0 60340 47700.00000 0 -24705896.901 -5819348.663 2784267.139 10 0 60340 48600.00000 0 -24899427.682 -5633367.934 -456268.840 10 0 60340 49500.00000 0 -24687170.171 -5363587.268 -3687963.992 10 0 60340 50400.00000 0 -24064999.180 -5067666.688 -6848200.130 10 0 60340 51300.00000 0 -23042545.645 -4803297.640 -9875711.831 10 0 60340 52200.00000 0 -21642889.591 -4625544.699 -12711768.959 10 0 60340 53100.00000 0 -19901709.065 -4584301.676 -15301312.679 10 0 60340 54000.00000 0 -17865919.261 -4721969.642 -17594023.157 10 0 60340 54900.00000 0 -15591857.233 -5071455.343 -19545298.342 10 0 60340 55800.00000 0 -13143086.590 -5654575.314 -21117124.762 10 0 60340 56700.00000 0 -10587912.440 -6480934.264 -22278823.305 10 0 60340 57600.00000 0 -7996709.032 -7547326.668 -23007655.175 10 0 60340 58500.00000 0 -5439170.612 -8837688.735 -23289275.751 10 0 60340 59400.00000 0 -2981599.369 -10323604.931 -23118026.836 10 0 60340 60300.00000 0 -684343.126 -11965349.981 -22497060.747 10 0 60340 61200.00000 0 1400510.490 -13713424.615 -21438292.807 10 0 60340 62100.00000 0 3231087.139 -15510522.323 -19962182.038 10 0 60340 63000.00000 0 4777244.366 -17293845.800 -18097343.241 10 0 60340 63900.00000 0 6021591.994 -18997676.534 -15879997.017 10 0 60340 64800.00000 0 6959971.523 -20556089.681 -13353267.691 10 0 60340 65700.00000 0 7601374.619 -21905699.691 -10566342.369 10 0 60340 66600.00000 0 7967304.633 -22988320.254 -7573507.548 10 0 60340 67500.00000 0 8090608.996 -23753425.391 -4433082.464 10 0 60340 68400.00000 0 8013833.078 -24160306.702 -1206270.826 10 0 60340 69300.00000 0 7787166.750 -24179834.591 2044045.399 10 0 60340 70200.00000 0 7466072.458 -23795748.263 5254545.200 10 0 60340 71100.00000 0 7108697.286 -23005419.535 8362715.006 10 0 60340 72000.00000 0 6773180.580 -21820058.176 11308076.624 10 0 60340 72900.00000 0 6514972.940 -20264350.507 14033371.500 10 0 60340 73800.00000 0 6384281.434 -18375547.223 16485677.391 10 0 60340 74700.00000 0 6423750.040 -16202039.781 18617435.317 10 0 60340 75600.00000 0 6666473.708 -13801486.148 20387366.997 10 0 60340 76500.00000 0 7134429.757 -11238565.360 21761265.603 10 0 60340 77400.00000 0 7837392.238 -8582455.398 22712645.537 10 0 60340 78300.00000 0 8772374.176 -5904139.849 23223240.030 10 0 60340 79200.00000 0 9923620.291 -3273655.226 23283338.451 10 0 60340 80100.00000 0 11263149.734 -757392.593 22891958.320 10 0 60340 81000.00000 0 12751825.509 1584435.736 22056850.087 10 0 60340 81900.00000 0 14340905.593 3700061.060 20794335.677 10 0 60340 82800.00000 0 15974010.946 5548062.735 19128984.687 10 0 60340 83700.00000 0 17589428.632 7098835.378 17093134.857 10 0 60340 84600.00000 0 19122654.521 8335560.101 14726266.040 10 0 60340 85500.00000 0 20509070.260 9254641.398 12074239.429 10 0 60341 0.00000 0 21686643.523 9865593.271 9188416.380 10 0 60341 900.00000 0 22598540.204 10190381.046 6124671.459 10 0 60341 1800.00000 0 23195538.506 10262246.684 2942321.867 10 0 60341 2700.00000 0 23438146.497 10124068.501 -297012.100 10 0 60341 3600.00000 0 23298333.034 9826323.511 -3530590.528 10 0 60341 4500.00000 0 22760799.949 9424738.368 -6695760.562 10 0 60341 5400.00000 0 21823741.498 8977727.491 -9731163.280 10 0 60341 6300.00000 0 20499058.240 8543725.961 -12577917.835 10 0 60341 7200.00000 0 18812015.081 8178529.391 -15180760.213 10 0 60341 8100.00000 0 16800356.204 7932752.826 -17489114.755 10 0 60341 9000.00000 0 14512912.191 7849516.001 -19458077.758 10 0 60341 9900.00000 0 12007755.752 7962453.048 -21049294.008 10 0 60341 10800.00000 0 9349981.354 8294131.389 -22231709.091 10 0 60341 11700.00000 0 6609199.776 8854947.667 -22982182.560 10 0 60341 12600.00000 0 3856850.730 9642548.740 -23285949.519 10 0 60341 13500.00000 0 1163444.488 10641803.915 -23136921.001 10 0 60341 14400.00000 0 -1404153.307 11825331.490 -22537816.419 10 0 60341 15300.00000 0 -3785280.854 13154559.356 -21500124.504 10 0 60341 16200.00000 0 -5927776.845 14581276.719 -20043892.398 10 0 60341 17100.00000 0 -7789918.663 16049613.055 -18197345.895 10 0 60341 18000.00000 0 -9341920.889 17498361.885 -15996347.231 10 0 60341 18900.00000 0 -10566931.324 18863551.896 -13483700.233 10 0 60341 19800.00000 0 -11461482.763 20081156.886 -10708315.873 10 0 60341 20700.00000 0 -12035381.865 21089829.581 -7724254.491 10 0 60341 21600.00000 0 -12311040.478 21833542.874 -4589663.751 10 0 60341 22500.00000 0 -12322278.717 22264025.707 -1365633.852 10 0 60341 23400.00000 0 -12112651.794 22342889.329 1885006.432 10 0 60341 24300.00000 0 -11733373.161 22043352.920 5098927.972 10 0 60341 25200.00000 0 -11240923.806 21351494.799 8213548.064 10 0 60341 26100.00000 0 -10694450.958 20266975.889 11168259.931 10 0 60341 27000.00000 0 -10153068.156 18803204.878 13905619.765 10 0 60341 27900.00000 0 -9673172.510 16986938.458 16372467.317 10 0 60341 28800.00000 0 -9305893.696 14857334.133 18520957.791 10 0 60341 29700.00000 0 -9094783.035 12464496.192 20309485.134 10 0 60341 30600.00000 0 -9073840.164 9867576.566 21703479.395 10 0 60341 31500.00000 0 -9265960.017 7132510.634 22676063.727 10 0 60341 32400.00000 0 -9681864.610 4329482.775 23208559.655 10 0 60341 33300.00000 0 -10319563.453 1530227.053 23290832.355 10 0 60341 34200.00000 0 -11164364.135 -1194725.277 22921470.786 10 0 60341 35100.00000 0 -12189431.636 -3778738.300 22107800.590 10 0 60341 36000.00000 0 -13356872.197 -6161593.810 20865730.631 10 0 60341 36900.00000 0 -14619295.982 -8291740.747 19219436.919 10 0 60341 37800.00000 0 -15921793.111 -10128180.500 17200890.428 10 0 60341 38700.00000 0 -17204240.743 -11641911.973 14849237.933 10 0 60341 39600.00000 0 -18403845.267 -12816878.396 12210047.471 10 0 60341 40500.00000 0 -19457814.007 -13650378.389 9334432.437 10 0 60341 41400.00000 0 -20306045.420 -14152925.674 6278070.418 10 0 60341 42300.00000 0 -20893725.819 -14347564.472 3100134.860 10 0 60341 43200.00000 0 -21173724.353 -14268670.037 -137840.611 10 0 60341 44100.00000 0 -21108686.082 -13960284.940 -3373144.146 10 0 60341 45000.00000 0 -20672735.177 -13474061.064 -6543091.674 10 0 60341 45900.00000 0 -19852716.329 -12866893.582 -9586234.213 10 0 60341 46800.00000 0 -18648921.280 -12198346.153 -12443543.593 10 0 60341 47700.00000 0 -17075268.720 -11527975.395 -15059553.879 10 0 60341 48600.00000 0 -15158928.340 -10912667.009 -17383436.622 10 0 60341 49500.00000 0 -12939402.867 -10404095.697 -19369989.179 10 0 60341 50400.00000 0 -10467104.476 -10046415.985 -20980516.876 10 0 60341 51300.00000 0 -7801483.002 -9874281.683 -22183591.767 10 0 60341 52200.00000 0 -5008782.119 -9911278.132 -22955672.931 10 0 60341 53100.00000 0 -2159515.361 -10168834.327 -23281575.780 10 0 60341 54000.00000 0 674234.272 -10645662.076 -23154780.561 10 0 60341 54900.00000 0 3421579.713 -11327747.308 -22577573.235 10 0 60341 55800.00000 0 6015545.678 -12188895.505 -21561014.926 10 0 60341 56700.00000 0 8395622.121 -13191809.781 -20124739.475 10 0 60341 57600.00000 0 10510048.817 -14289657.511 -18296581.896 10 0 60341 58500.00000 0 12317735.477 -15428060.392 -16112043.984 10 0 60341 59400.00000 0 13789736.851 -16547424.480 -13613606.697 10 0 60341 60300.00000 0 14910220.908 -17585511.852 -10849902.231 10 0 60341 61200.00000 0 15676889.457 -18480144.701 -7874761.890 10 0 60341 62100.00000 0 16100833.955 -19171926.638 -4746158.682 10 0 60341 63000.00000 0 16205833.357 -19606864.831 -1525066.075 10 0 60341 63900.00000 0 16027124.827 -19738780.652 1725743.635 10 0 60341 64800.00000 0 15609700.848 -19531405.450 4942936.450 10 0 60341 65700.00000 0 15006206.558 -18960071.665 8063863.651 10 0 60341 66600.00000 0 14274528.257 -18012926.909 11027792.781 10 0 60341 67500.00000 0 13475177.016 -16691619.351 13777097.383 10 0 60341 68400.00000 0 12668579.716 -15011425.419 16258381.454 10 0 60341 69300.00000 0 11912393.299 -13000814.817 18423516.254 10 0 60341 70200.00000 0 11258956.407 -10700471.656 20230569.415 10 0 60341 71100.00000 0 10752986.042 -8161813.387 21644608.905 10 0 60341 72000.00000 0 10429615.933 -5445070.104 22638367.257 10 0 60341 72900.00000 0 10312858.231 -2617004.731 23192754.516 10 0 60341 73800.00000 0 10414551.983 251630.938 23297211.522 10 0 60341 74700.00000 0 10733841.106 3088798.943 22949898.189 10 0 60341 75600.00000 0 11257202.368 5823925.238 22157714.566 10 0 60341 76500.00000 0 11959020.985 8390584.379 20936155.404 10 0 60341 77400.00000 0 12802688.791 10729009.099 19309001.852 10 0 60341 78300.00000 0 13742178.460 12788322.608 17307856.657 10 0 60341 79200.00000 0 14724027.701 14528403.041 14971531.861 10 0 60341 80100.00000 0 15689650.542 15921304.567 12345300.525 10 0 60341 81000.00000 0 16577879.333 16952177.941 9480026.359 10 0 60341 81900.00000 0 17327631.572 17619653.746 6431187.274 10 0 60341 82800.00000 0 17880590.347 17935673.559 3257810.887 10 0 60341 83700.00000 0 18183786.503 17924776.987 21341.688 10 0 60341 84600.00000 0 18191974.438 17622874.904 -3215539.082 10 0 60341 85500.00000 0 17869701.768 17075560.435 -6390118.697 10 0 60342 0.00000 0 17192985.628 16336028.533 -9440860.359 10 0 60342 900.00000 0 16150523.953 15462690.756 -12308591.507 10 0 60342 1800.00000 0 14744390.623 14516586.132 -14937646.212 10 0 60342 2700.00000 0 12990182.478 13558695.242 -17276945.236 10 0 60342 3600.00000 0 10916610.885 12647271.128 -19280988.786 10 0 60342 4500.00000 0 8564552.491 11835298.794 -20910744.319 10 0 60342 5400.00000 0 5985596.631 11168190.338 -22134411.751 10 0 60342 6300.00000 0 3240147.812 10681813.006 -22928050.908 10 0 60342 7200.00000 0 395160.409 10400933.778 -23276058.512 10 0 60342 8100.00000 0 -2478401.781 10338146.826 -23171484.803 10 0 60342 9000.00000 0 -5308276.694 10493330.056 -22616182.749 10 0 60342 9900.00000 0 -8023673.872 10853654.850 -21620785.972 10 0 60342 10800.00000 0 -10557988.195 11394149.783 -20204514.707 10 0 60342 11700.00000 0 -12851344.515 12078795.682 -18394812.455 10 0 60342 12600.00000 0 -14852866.794 12862106.653 -16226819.426 10 0 60342 13500.00000 0 -16522576.613 13691130.825 -13742692.205 10 0 60342 14400.00000 0 -17832841.252 14507786.299 -10990782.395 10 0 60342 15300.00000 0 -18769310.339 15251433.103 -8024690.201 10 0 60342 16200.00000 0 -19331301.819 15861571.401 -4902211.732 10 0 60342 17100.00000 0 -19531621.381 16280550.514 -1684201.326 10 0 60342 18000.00000 0 -19395823.833 16456172.538 1566627.705 10 0 60342 18900.00000 0 -18960948.861 16344078.761 4786939.108 10 0 60342 19800.00000 0 -18273786.215 15909816.464 7914020.846 10 0 60342 20700.00000 0 -17388745.496 15130497.475 10887017.535 10 0 60342 21600.00000 0 -16365422.490 13995977.614 13648122.849 10 0 60342 22500.00000 0 -15265966.668 12509506.845 16143707.782 10 0 60342 23400.00000 0 -14152362.449 10687822.752 18325362.294 10 0 60342 24300.00000 0 -13083739.912 8560683.711 20150830.187 10 0 60342 25200.00000 0 -12113828.668 6169861.790 21584819.602 10 0 60342 26100.00000 0 -11288661.831 3567638.058 22599674.397 10 0 60342 27000.00000 0 -10644625.839 814863.527 23175894.753 10 0 60342 27900.00000 0 -10206936.714 -2021333.379 23302498.397 10 0 60342 28800.00000 0 -9988605.134 -4870097.630 22977217.010 10 0 60342 29700.00000 0 -9989931.966 -7659551.382 22206525.430 10 0 60342 30600.00000 0 -10198553.748 -10319539.594 21005504.240 10 0 60342 31500.00000 0 -10590034.783 -12784304.983 19397539.220 10 0 60342 32400.00000 0 -11128979.947 -14994983.054 17413863.944 10 0 60342 33300.00000 0 -11770620.920 -16901815.561 15092954.360 10 0 60342 34200.00000 0 -12462809.091 -18465992.299 12479786.810 10 0 60342 35100.00000 0 -13148331.684 -19661046.467 9624973.236 10 0 60342 36000.00000 0 -13767454.300 -20473747.057 6583789.505 10 0 60342 36900.00000 0 -14260583.648 -20904452.277 3415114.794 10 0 60342 37800.00000 0 -14570939.138 -20966910.192 180301.647 10 0 60342 38700.00000 0 -14647121.441 -20687515.358 -3058002.288 10 0 60342 39600.00000 0 -14445470.167 -20104052.803 -6237058.743 10 0 60342 40500.00000 0 -13932111.316 -19263981.809 -9295246.870 10 0 60342 41400.00000 0 -13084607.777 -18222331.137 -12173251.900 10 0 60342 42300.00000 0 -11893142.449 -17039293.538 -14815211.748 10 0 60342 43200.00000 0 -10361182.796 -15777620.010 -17169799.564 10 0 60342 44100.00000 0 -8505597.026 -14499922.690 -19191221.366 10 0 60342 45000.00000 0 -6356214.855 -13265999.321 -20840109.379 10 0 60342 45900.00000 0 -3954848.854 -12130291.414 -22084293.591 10 0 60342 46800.00000 0 -1353814.847 -11139582.906 -22899436.268 10 0 60342 47700.00000 0 1385989.163 -10331036.221 -23269516.599 10 0 60342 48600.00000 0 4197367.510 -9730648.757 -23187155.405 10 0 60342 49500.00000 0 7009381.329 -9352195.359 -22653772.747 10 0 60342 50400.00000 0 9750067.803 -9196702.091 -21679574.343 10 0 60342 51300.00000 0 12349211.653 -9252474.340 -20283365.993 10 0 60342 52200.00000 0 14741053.696 -9495678.899 -18492198.463 10 0 60342 53100.00000 0 16866823.305 -9891456.130 -16340848.758 10 0 60342 54000.00000 0 18676988.625 -10395515.636 -13871147.069 10 0 60342 54900.00000 0 20133129.876 -10956148.010 -11131161.992 10 0 60342 55800.00000 0 21209356.706 -11516567.122 -8174259.824 10 0 60342 56700.00000 0 21893209.816 -12017482.916 -5058056.608 10 0 60342 57600.00000 0 22186008.952 -12399794.517 -1843284.112 10 0 60342 58500.00000 0 22102633.054 -12607287.995 1407406.958 10 0 60342 59400.00000 0 21670742.712 -12589222.832 4630681.751 10 0 60342 60300.00000 0 20929479.085 -12302695.925 7763768.489 10 0 60342 61200.00000 0 19927695.826 -11714681.604 10745692.217 10 0 60342 62100.00000 0 18721800.486 -10803660.327 13518469.774 10 0 60342 63000.00000 0 17373298.279 -9560766.518 16028241.792 10 0 60342 63900.00000 0 15946143.397 -7990406.855 18226319.146 10 0 60342 64800.00000 0 14504010.652 -6110323.037 20070123.557 10 0 60342 65700.00000 0 13107602.904 -3951096.648 21524004.638 10 0 60342 66600.00000 0 11812107.507 -1555117.317 22559918.441 10 0 60342 67500.00000 0 10664907.942 1024942.365 23157955.704 10 0 60342 68400.00000 0 9703645.412 3728081.333 23306711.060 10 0 60342 69300.00000 0 8954710.043 6487272.624 23003487.580 10 0 60342 70200.00000 0 8432222.921 9232018.752 22254334.149 10 0 60342 71100.00000 0 8137549.631 11891054.580 21073916.093 10 0 60342 72000.00000 0 8059363.773 14395086.662 19485222.449 10 0 60342 72900.00000 0 8174256.182 16679456.823 17519115.969 10 0 60342 73800.00000 0 8447863.119 18686621.097 15213734.632 10 0 60342 74700.00000 0 8836465.373 20368342.720 12613755.978 10 0 60342 75600.00000 0 9288990.841 21687509.673 9769537.906 10 0 60342 76500.00000 0 9749336.548 22619502.580 6736151.793 10 0 60342 77400.00000 0 10158912.863 23153057.132 3572325.776 10 0 60342 78300.00000 0 10459303.346 23290585.909 339317.753 10 0 60342 79200.00000 0 10594928.776 23047946.632 -2900260.978 10 0 60342 80100.00000 0 10515603.481 22453666.693 -6083649.357 10 0 60342 81000.00000 0 10178876.380 21547656.233 -9149144.856 10 0 60342 81900.00000 0 9552057.800 20379463.244 -12037293.537 10 0 60342 82800.00000 0 8613845.969 19006143.246 -14692039.148 10 0 60342 83700.00000 0 7355483.546 17489832.142 -17061809.250 10 0 60342 84600.00000 0 5781393.836 15895123.319 -19100517.453 10 0 60342 85500.00000 0 3909267.946 14286358.384 -20768462.278 10 0 60343 0.00000 0 1769597.042 12724944.771 -22033104.989 10 0 60343 900.00000 0 -595334.408 11266811.586 -22869711.583 10 0 60343 1800.00000 0 -3132951.902 9960112.376 -23261844.389 10 0 60343 2700.00000 0 -5782334.037 8843268.553 -23201695.329 10 0 60343 3600.00000 0 -8476513.665 7943438.007 -22690251.723 10 0 60343 4500.00000 0 -11145043.782 7275472.880 -21737291.169 10 0 60343 5400.00000 0 -13716722.042 6841410.998 -20361204.389 10 0 60343 6300.00000 0 -16122360.853 6630522.950 -18588648.335 10 0 60343 7200.00000 0 -18297487.427 6619913.235 -16454035.348 10 0 60343 8100.00000 0 -20184860.654 6775650.402 -13998867.429 10 0 60343 9000.00000 0 -21736698.874 7054378.302 -11270928.116 10 0 60343 9900.00000 0 -22916524.453 7405339.916 -8323347.574 10 0 60343 10800.00000 0 -23700547.132 7772727.169 -5213559.442 10 0 60343 11700.00000 0 -24078527.603 8098255.983 -2002170.497 10 0 60343 12600.00000 0 -24054084.920 8323855.854 1248233.631 10 0 60343 13500.00000 0 -23644435.273 8394358.228 4474322.027 10 0 60343 14400.00000 0 -22879574.004 8260067.971 7613265.744 10 0 60343 15300.00000 0 -21800936.709 7879107.404 10603972.862 10 0 60343 16200.00000 0 -20459597.477 7219432.334 13388285.999 10 0 60343 17100.00000 0 -18914081.961 6260433.909 15912117.970 10 0 60343 18000.00000 0 -17227889.004 4994058.106 18126502.983 10 0 60343 18900.00000 0 -15466826.476 3425395.537 19988542.899 10 0 60343 19800.00000 0 -13696274.158 1572716.874 21462230.733 10 0 60343 20700.00000 0 -11978488.843 -533047.246 22519136.320 10 0 60343 21600.00000 0 -10370064.312 -2849359.716 23138942.177 10 0 60343 22500.00000 0 -8919651.502 -5323619.580 23309820.664 10 0 60343 23400.00000 0 -7666032.782 -7895129.388 23028646.677 10 0 60343 24300.00000 0 -6636628.878 -10497405.633 22301043.196 10 0 60343 25200.00000 0 -5846498.719 -13060736.793 21141259.992 10 0 60343 26100.00000 0 -5297871.821 -15514883.601 19571888.701 10 0 60343 27000.00000 0 -4980230.753 -17791810.609 17623420.278 10 0 60343 27900.00000 0 -4870938.506 -19828337.005 15333653.448 10 0 60343 28800.00000 0 -4936383.199 -21568598.021 12746965.377 10 0 60343 29700.00000 0 -5133591.282 -22966216.057 9913458.110 10 0 60343 30600.00000 0 -5412241.154 -23986092.488 6887996.501 10 0 60343 31500.00000 0 -5716992.541 -24605746.575 3729155.435 10 0 60343 32400.00000 0 -5990033.923 -24816146.391 498095.782 10 0 60343 33300.00000 0 -6173741.169 -24621997.516 -2742610.022 10 0 60343 34200.00000 0 -6213335.695 -24041477.465 -5930180.788 10 0 60343 35100.00000 0 -6059430.378 -23105426.729 -9002835.109 10 0 60343 36000.00000 0 -5670355.804 -21856029.739 -11900982.780 10 0 60343 36900.00000 0 -5014168.358 -20345040.233 -14568376.341 10 0 60343 37800.00000 0 -4070254.683 -18631624.518 -16953200.704 10 0 60343 38700.00000 0 -2830463.567 -16779911.987 -19009079.887 10 0 60343 39600.00000 0 -1299715.904 -14856354.647 -20695981.302 10 0 60343 40500.00000 0 503935.126 -12927005.438 -21980999.932 10 0 60343 41400.00000 0 2549798.579 -11054828.680 -22839006.897 10 0 60343 42300.00000 0 4795576.832 -9297154.887 -23253149.321 10 0 60343 43200.00000 0 7188892.564 -7703386.347 -23215191.138 10 0 60343 44100.00000 0 9669250.101 -6313049.600 -22725687.384 10 0 60343 45000.00000 0 12170351.069 -5154276.674 -21793987.562 10 0 60343 45900.00000 0 14622669.053 -4242779.122 -20438066.925 10 0 60343 46800.00000 0 16956176.595 -3581358.285 -18684187.844 10 0 60343 47700.00000 0 19103110.843 -3159972.654 -16566396.803 10 0 60343 48600.00000 0 21000661.956 -2956359.610 -14125866.012 10 0 60343 49500.00000 0 22593471.135 -2937185.115 -11410091.901 10 0 60343 50400.00000 0 23835832.658 -3059672.302 -8471966.000 10 0 60343 51300.00000 0 24693506.621 -3273639.176 -5368736.624 10 0 60343 52200.00000 0 25145065.421 -3523857.883 -2160882.298 10 0 60343 53100.00000 0 25182716.855 -3752634.020 1089079.936 10 0 60343 54000.00000 0 24812569.132 -3902494.844 4317826.725 10 0 60343 54900.00000 0 24054327.054 -3918870.594 7462475.553 10 0 60343 55800.00000 0 22940433.074 -3752653.509 10461820.995 10 0 60343 56700.00000 0 21514690.700 -3362524.663 13257534.634 10 0 60343 57600.00000 0 19830429.728 -2716948.978 15795304.341 10 0 60343 58500.00000 0 17948292.058 -1795753.369 18025890.133 10 0 60343 59400.00000 0 15933732.581 -591221.114 19906076.092 10 0 60343 60300.00000 0 13854341.047 891343.630 21399500.305 10 0 60343 61200.00000 0 11777097.747 2633604.618 22477347.651 10 0 60343 62100.00000 0 9765677.797 4604735.675 23118893.267 10 0 60343 63000.00000 0 7877916.004 6762493.207 23311887.664 10 0 60343 63900.00000 0 6163536.909 9054774.010 23052777.557 10 0 60343 64800.00000 0 4662242.914 11421593.476 22346759.596 10 0 60343 65700.00000 0 3402238.097 13797402.161 21207667.143 10 0 60343 66600.00000 0 2399247.017 16113644.963 19657693.197 10 0 60343 67500.00000 0 1656067.147 18301457.473 17726955.322 10 0 60343 68400.00000 0 1162671.562 20294388.555 15452911.088 10 0 60343 69300.00000 0 896855.831 22031037.195 12879635.124 10 0 60343 70200.00000 0 825400.727 23457495.216 10056971.220 10 0 60343 71100.00000 0 905701.153 24529495.324 7039575.123 10 0 60343 72000.00000 0 1087792.472 25214175.921 3885865.714 10 0 60343 72900.00000 0 1316689.040 25491389.765 656903.971 10 0 60343 73800.00000 0 1534936.712 25354502.173 -2584779.480 10 0 60343 74700.00000 0 1685272.130 24810645.422 -5776386.248 10 0 60343 75600.00000 0 1713277.003 23880418.345 -8856058.904 10 0 60343 76500.00000 0 1569915.571 22597043.059 -11764073.674 10 0 60343 77400.00000 0 1213848.107 21005013.189 -14443994.383 10 0 60343 78300.00000 0 613422.369 19158289.134 -16843765.531 10 0 60343 79200.00000 0 -251741.900 17118114.691 -18916723.510 10 0 60343 80100.00000 0 -1389643.567 14950545.274 -20622506.310 10 0 60343 81000.00000 0 -2795314.325 12723790.043 -21927843.950 10 0 60343 81900.00000 0 -4450783.346 10505478.150 -22807214.025 10 0 60343 82800.00000 0 -6325596.279 8359962.724 -23243349.129 10 0 60343 83700.00000 0 -8377869.300 6345774.825 -23227585.677 10 0 60343 84600.00000 0 -10555836.468 4513333.609 -22760046.490 10 0 60343 85500.00000 0 -12799827.701 2903008.481 -21849652.610 99